Simultaneous Nadir Overpasses (SNOs) Predictions

Prediction of SNOs over PacNW region [( 10.00, 139.50) to ( 22.70, 165.60)] between AQUA and NPP Satellites:

Table of predicted SNOs over PacNW region for the next 30.0 days since TLE Epoch: 11/17/2018
Index Date (AQUA) Time (AQUA) AQUA Lat,Lon Date (NPP) Time (NPP) NPP Lat,Lon Distance(km) Time Diff (sec)
1 11/19/2018 15:09:48 22.62, 159.85 11/19/2018 15:11:29 23.22, 157.18 282.07 101
2 11/22/2018 03:31:39 22.69, 147.52 11/22/2018 03:28:09 24.06, 145.35 269.01 210
3 11/27/2018 15:59:16 22.62, 147.49 11/27/2018 16:02:13 23.31, 144.50 315.63 177
4 12/05/2018 15:09:49 22.62, 159.85 12/05/2018 15:11:29 23.22, 157.15 284.38 100
5 12/08/2018 03:31:39 22.69, 147.52 12/08/2018 03:28:09 24.09, 145.32 273.52 210
6 12/13/2018 15:59:14 22.63, 147.49 12/13/2018 16:02:11 23.33, 144.48 318.48 177




NCC Satellite Simultaneous Nadir Overpasses (SNOs) Prediction Service
